Location: *
(45.0500°N, 12.0500°E)
Time: 03:58:50
(UTC+00:00)

COSMOS 2406 - Pass Details

Date: 09 April 2020
Orbit: 842 x 865 km, 71.0° (Epoch: 06 June)

Event Time Altitude Azimuth Distance (km) Brightness Sun altitude
Exits shadow 20:54:57 31° 232° (SW) 1,444 4.3 -28.5°
Maximum altitude 20:57:35 60° 299° (WNW) 969 3.6 -28.8°
Drops below altitude 10° 21:03:14 10° 20° (NNE) 2,490 6.0 -29.5°
Sets 21:05:45 0° 24° (NNE) 3,434 6.7 -29.7°
